Regional Weather Roundup
Issued by NWS

Home | Current Version | Previous Version | Text Only | Print | Product List | Glossary On
Versions: 1 2 3 4 5 6 7 8 9 10 11 12 13 14 15 16 17 18 19 20 21 22 23 24 25 26 27 28 29 30 31 32 33 34 35 36 37 38 39 40 41 42 43 44 45 46 47 48 49 50
000
ASUS43 KLSX 280010
RWRMO

WEATHER SUMMARY FOR MISSOURI
NATIONAL WEATHER SERVICE SPRINGFIELD MO
700 PM CDT SUN MAY 27 2018

NOTE: "FAIR" INDICATES FEW OR NO CLOUDS BELOW 12,000 FEET WITH NO
       SIGNIFICANT WEATHER AND/OR OBSTRUCTIONS TO VISIBILITY.
       CURRENT SKY AND/OR WEATHER CONDITIONS ARE NOT AVAILABLE FOR
       CHILLICOTHE AND FARMINGTON.

MOZ001>031-035>038-043-044-053-054-280100-
...NORTHERN AND WESTERN MISSOURI...

CITY           SKY/WX    TMP DP  RH WIND       PRES   REMARKS
KANSAS CTY INT PTSUNNY   89  71  55 SW6       29.86S HX  95
6HR MIN TEMP:  87; 6HR MAX TEMP:  93;

KANSAS C DTWN  MOSUNNY   92  67  43 S8        29.84R HX  95
6HR MIN TEMP:  90; 6HR MAX TEMP:  95;

LEE`S SUMMIT   CLOUDY    87  71  58 SW7       29.87S HX  93
6HR MIN TEMP:  87; 6HR MAX TEMP:  93;

ST JOSEPH      MOSUNNY   95  66  38 S10       29.83R HX  98
6HR MIN TEMP:  94; 6HR MAX TEMP:  99;

CHILLICOTHE      N/A     96  69  41 CALM      29.83F HX 102
6HR MIN TEMP:  94; 6HR MAX TEMP:  99;

KIRKSVILLE     CLOUDY    92  75  57 CALM      29.86S HX 103
6HR MIN TEMP:  91; 6HR MAX TEMP:  97;


$$
MOZ066>068-077>081-088>096-101>105-280100-
...SOUTHWEST MISSOURI...

CITY           SKY/WX    TMP DP  RH WIND       PRES   REMARKS
SPRINGFIELD    MOSUNNY   88  67  49 SW7       29.89R HX  91
6HR MIN TEMP:  87; 6HR MAX TEMP:  93;

JOPLIN         PTSUNNY   86  70  58 SE3       29.87S HX  90
6HR MIN TEMP:  86; 6HR MAX TEMP:  91;

BRANSON        PTSUNNY   84  70  61 SE6       29.91S

$$
MOZ032>034-039>042-045>050-055>058-069>072-280100-
...CENTRAL MISSOURI...

CITY           SKY/WX    TMP DP  RH WIND       PRES   REMARKS
COLUMBIA       MOSUNNY   91  68  46 W7        29.87S HX  95
6HR MIN TEMP:  90; 6HR MAX TEMP:  94;

JEFFERSON CITY MOSUNNY   88  66  48 SW3       29.85R HX  90
6HR MIN TEMP:  86; 6HR MAX TEMP:  94;

ROLLA          SUNNY     87  69  54 W3        29.89F HX  91
6HR MIN TEMP:  87; 6HR MAX TEMP:  91;

SEDALIA        SUNNY     89  71  55 S6        29.88S HX  95
6HR MIN TEMP:  88; 6HR MAX TEMP:  93;

WHITEMAN AFB   MOSUNNY   88  73  59 S5        29.83S HX  96
WARRENSBURG    SUNNY     90  70  51 S3        29.86S HX  95
OSAGE BEACH    SUNNY     88  74  63 N3        29.89R HX  96

$$
MOZ051-052-059>065-280100-
...EAST CENTRAL MISSOURI...

CITY           SKY/WX    TMP DP  RH WIND       PRES   REMARKS
ST LOUIS INTL  CLOUDY    90  69  50 CALM      29.86R HX  94
6HR MIN TEMP:  85; 6HR MAX TEMP:  96;

SPIRIT OF STL  CLOUDY    83  73  72 CALM      29.85R
6HR MIN TEMP:  83; 6HR MAX TEMP:  95; 6HR PCP: TRACE;

ST CHARLES     CLOUDY    87  73  62 SE5       29.84R HX  94
6HR MIN TEMP:  87; 6HR MAX TEMP:  94;


$$
MOZ072>076-082>087-097>100-106>115-280100-
...SOUTH CENTRAL AND SOUTHEAST MISSOURI...

CITY           SKY/WX    TMP DP  RH WIND       PRES   REMARKS
CAPE GIRARDEAU FAIR      86  69  56 E7        29.83F HX  90
6HR MIN TEMP:  86; 6HR MAX TEMP:  92;

FARMINGTON     CLOUDY    82  69  64 SW3       29.90R
6HR MIN TEMP:  82; 6HR MAX TEMP:  91;

POPLAR BLUFF   FAIR      89  71  55 N5        29.83F HX  95
6HR MIN TEMP:  88; 6HR MAX TEMP:  92;

WEST PLAINS    SUNNY     86  68  54 S5        29.91F
6HR MIN TEMP:  85; 6HR MAX TEMP:  89;


$$




USA.gov is the U.S. government's official web portal to all federal, state and local government web resources and services.